Regional Weather Roundup
Issued by NWS

Home | Current Version | Previous Version | Text Only | Print | Product List | Glossary On
Versions: 1 2 3 4 5 6 7 8 9 10 11 12 13 14 15 16 17 18 19 20 21 22 23 24 25 26 27 28 29 30 31 32 33 34 35 36 37 38 39 40 41 42 43 44 45 46 47 48 49 50
793
ASUS44 KFWD 191810
RWRTX
NORTH TEXAS HOURLY WEATHER ROUNDUP
NATIONAL WEATHER SERVICE FORT WORTH TX
1200 PM CST SUN FEB 19 2017

NOTE: "FAIR" INDICATES FEW OR NO CLOUDS BELOW 12,000 FEET WITH NO
SIGNIFICANT WEATHER AND/OR OBSTRUCTIONS TO VISIBILITY.

TXZ118-119-191900-
DALLAS/FORT WORTH METROPLEX

CITY           SKY/WX    TMP DP  RH WIND       PRES   REMARKS
DFW AIRPORT    CLOUDY    71  66  84 SE14      29.89F HAZE
6HR MIN TEMP:  58; 6HR MAX TEMP:  71;

DALLAS LOVE    CLOUDY    72  65  78 SE12      29.90F HAZE
6HR MIN TEMP:  61; 6HR MAX TEMP:  72; 6HR PCP: TRACE;

FTW MEACHAM    CLOUDY    70  65  84 E8        29.89F HAZE
6HR MIN TEMP:  62; 6HR MAX TEMP:  70; 6HR PCP: TRACE;

DAL-EXECUTIVE  CLOUDY    70  66  87 SE10      29.90F FOG
6HR MIN TEMP:  58; 6HR MAX TEMP:  70;

FTW-ALLIANCE   LGT RAIN  68  65  90 SE9       29.89F VSB 1
6HR MIN TEMP:  60; 6HR MAX TEMP:  68; 6HR PCP: TRACE;

FTW-NAS-JRB    CLOUDY    71  66  84 SE9       29.89F HAZE
6HR MIN TEMP:  61; 6HR MAX TEMP:  71;

FTW-SPINKS     CLOUDY    70  66  88 SE12      29.91F FOG
ARLINGTON      CLOUDY    72  65  78 SE14      29.89F
6HR MIN TEMP:  59; 6HR MAX TEMP:  72;

GRAND PRAIRIE  PTSUNNY   72  64  78 SE12      29.91F FOG
ADDISON        CLOUDY    72  64  78 SE12G18   29.91F HAZE
LANCASTER      CLOUDY    71  65  82 SE14      29.91F HAZE
6HR MIN TEMP:  53; 6HR MAX TEMP:  71;

$$

TXZ091>094-102>105-117-120-121-131>134-191900-
NORTH CENTRAL TEXAS

CITY           SKY/WX    TMP DP  RH WIND       PRES   REMARKS
SHRMAN/DENISON CLOUDY    65  63  91 E7        29.95S FOG
6HR MIN TEMP:  55; 6HR MAX TEMP:  66;

GAINESVILLE    FOG       64  63  97 SE7       29.94F VSB 3/4
6HR MIN TEMP:  58; 6HR MAX TEMP:  64;

BOWIE          CLOUDY    65  65  99 SE6       29.90F FOG
6HR MIN TEMP:  59; 6HR MAX TEMP:  67;

BRIDGEPORT     CLOUDY    66  65  97 SE6       29.91F FOG
6HR MIN TEMP:  57; 6HR MAX TEMP:  67;

DECATUR        FOG       64  64  97 E6        29.91F VSB 3/4
6HR MIN TEMP:  58; 6HR MAX TEMP:  64;

DENTON         CLOUDY    67  65  93 SE8       29.90F FOG
6HR MIN TEMP:  60; 6HR MAX TEMP:  67;

MCKINNEY       CLOUDY    68  66  93 SE6       29.92F FOG
6HR MIN TEMP:  57; 6HR MAX TEMP:  68;

BONHAM         CLOUDY    64  63  94 SE10      29.96S FOG
GREENVILLE       N/A     70  63  78 SE13      29.94F
ROCKWALL       CLOUDY    71  66  84 SE7G17    29.93F
6HR MIN TEMP:  58; 6HR MAX TEMP:  71;

TERRELL        CLOUDY    72  64  76 SE9       29.93F
6HR MIN TEMP:  61; 6HR MAX TEMP:  72;

WAXAHACHIE     CLOUDY    70  67  90 SE7       29.91F FOG
6HR MIN TEMP:  60; 6HR MAX TEMP:  70;

CLEBURNE       CLOUDY    72  70  94 SE12      29.90F
GRANBURY       CLOUDY    73  66  78 SE8G18    29.89F HAZE
6HR MIN TEMP:  64; 6HR MAX TEMP:  73;

$$

TXZ083>090-098>101-113>116-127>130-139>142-154-155-191900-
WESTERN NORTH TEXAS

CITY           SKY/WX    TMP DP  RH WIND       PRES   REMARKS
WICHITA FALLS  CLOUDY    73  58  59 S23G29    29.87S
6HR MIN TEMP:  53; 6HR MAX TEMP:  75;

WF-KICKAPOO    CLOUDY    73  61  66 S14       29.89S
6HR MIN TEMP:  53; 6HR MAX TEMP:  75;

VERNON         PTSUNNY   64  55  75 S5        29.89F
6HR MIN TEMP:  42; 6HR MAX TEMP:  73;

ABILENE        CLOUDY    68  60  75 S12       29.86F
6HR MIN TEMP:  54; 6HR MAX TEMP:  70;

ABILENE-DYESS  CLOUDY    68  62  79 SW10      29.84F
6HR MIN TEMP:  55; 6HR MAX TEMP:  70;

GRAHAM         CLOUDY    71  64  78 SE12G17   29.85F
6HR MIN TEMP:  58; 6HR MAX TEMP:  71;

BRECKENRIDGE   CLOUDY    74  60  61 S14G20    29.85F HAZE
6HR MIN TEMP:  62; 6HR MAX TEMP:  75;

CISCO          CLOUDY    72  61  68 S25       29.86F
RANGER         CLOUDY    72  63  73 S16G22    29.87F
MINERAL WELLS  CLOUDY    71  64  78 SE10      29.86F
6HR MIN TEMP:  61; 6HR MAX TEMP:  71;

STEPHENVILLE   CLOUDY    72  63  73 S14       29.91S
6HR MIN TEMP:  63; 6HR MAX TEMP:  72;

COMANCHE       CLOUDY    71  65  82 S12       29.87F
6HR MIN TEMP:  60; 6HR MAX TEMP:  72;

BROWNWOOD      CLOUDY    68  64  88 SE12G21   29.87F HAZE
COLEMAN        CLOUDY    69  62  78 S12       29.87S
6HR MIN TEMP:  61; 6HR MAX TEMP:  69;

$$

TXZ143>147-156>162-174-175-191900-
CENTRAL TEXAS

CITY           SKY/WX    TMP DP  RH WIND       PRES   REMARKS
WACO           CLOUDY    74  67  78 SE16      29.87F
6HR MIN TEMP:  66; 6HR MAX TEMP:  74;

WACO-MCGREGOR  CLOUDY    74  67  78 SE15      29.87F
6HR MIN TEMP:  65; 6HR MAX TEMP:  74;

HILLSBORO      CLOUDY    74  68  81 SE16      29.89F HAZE
6HR MIN TEMP:  63; 6HR MAX TEMP:  74;

CORSICANA      CLOUDY    72  67  84 SE14      29.92F HAZE
6HR MIN TEMP:  65; 6HR MAX TEMP:  73;

MEXIA          CLOUDY    73  65  78 SE13G28   29.90F
6HR MIN TEMP:  64; 6HR MAX TEMP:  73;

HEARNE         CLOUDY    77  67  70 SE17G24   29.89F
6HR MIN TEMP:  68; 6HR MAX TEMP:  78;

CAMERON        CLOUDY    77  66  68 SE10G20   29.87F
6HR MIN TEMP:  68; 6HR MAX TEMP:  78;

TEMPLE         CLOUDY    74  67  78 SE20G25   29.87F
6HR MIN TEMP:  66; 6HR MAX TEMP:  74;

KILLEEN        CLOUDY    73  66  78 SE18      29.85F
6HR MIN TEMP:  65; 6HR MAX TEMP:  73;

KILLEEN-SKYLRK CLOUDY    74  67  78 SE17      29.86F
6HR MIN TEMP:  66; 6HR MAX TEMP:  74;

FORT HOOD      CLOUDY    72  66  81 S14       29.83F
6HR MIN TEMP:  64; 6HR MAX TEMP:  72;

GATESVILLE     PTSUNNY   73  66  78 S15G21    29.89F
HAMILTON       CLOUDY    73  67  81 SE15      29.88F
6HR MIN TEMP:  63; 6HR MAX TEMP:  73;

LAMPASAS       CLOUDY    73  67  81 S10G16    29.86S
6HR MIN TEMP:  63; 6HR MAX TEMP:  73;

$$

TXZ095>097-106>112-122>126-135>138-148>153-164>167-191900-
EAST TEXAS

CITY           SKY/WX    TMP DP  RH WIND       PRES   REMARKS
PARIS          CLOUDY    63  61  94 SE10      29.99S
6HR MIN TEMP:  57; 6HR MAX TEMP:  63;

SULPHUR SPRNGS CLOUDY    70  65  82 SE9       29.98F
6HR MIN TEMP:  57; 6HR MAX TEMP:  70;

MOUNT PLEASANT MOSUNNY   72  63  72 E8        29.99F
6HR MIN TEMP:  58; 6HR MAX TEMP:  72;

GILMER         PTSUNNY   74  63  70 SE7       29.96F
6HR MIN TEMP:  58; 6HR MAX TEMP:  74;

MINEOLA        CLOUDY    73  64  73 SE8       29.95F
TYLER          CLOUDY    74  65  73 SE18G24   29.94F
6HR MIN TEMP:  63; 6HR MAX TEMP:  74;

LONGVIEW       PTSUNNY   75  65  70 SE12      29.96F
6HR MIN TEMP:  59; 6HR MAX TEMP:  76;

MARSHALL       MOSUNNY   75  63  64 SE7       30.00F
6HR MIN TEMP:  56; 6HR MAX TEMP:  75;

ATHENS         CLOUDY    70  66  88 SE10G16   29.92F
PALESTINE      CLOUDY    71  67  87 SE14      29.95F FOG
JACKSONVILLE   CLOUDY    71  66  83 SE10G21   29.98F
HENDERSON      CLOUDY    73  64  72 SE12      29.98F
6HR MIN TEMP:  62; 6HR MAX TEMP:  75;

CENTER         PTCLDY    78  66  66 S8        30.00F
6HR MIN TEMP:  58; 6HR MAX TEMP:  78;

NACOGDOCHES    CLOUDY    72  63  73 SE9G18    29.97F
6HR MIN TEMP:  64; 6HR MAX TEMP:  72;

LUFKIN         CLOUDY    72  65  78 SE15      29.96F
6HR MIN TEMP:  64; 6HR MAX TEMP:  72;

$$

SUPPLEMENTAL OBSERVATIONS (CENTRAL)

CITY           SKY/WX    TMP DP  RH WIND       PRES   REMARKS
CADDO GRASSLND   N/A     66  63  88 SE6         N/A
MCGREGOR         N/A     75  72  88 SE14G22     N/A
TEMPLE           N/A     75  66  73 SE15G22     N/A
$$

SUPPLEMENTAL OBSERVATIONS (WEST)

CITY           SKY/WX    TMP DP  RH WIND       PRES   REMARKS
MILLERS CREEK    N/A     66  59  77 NW5G



USA.gov is the U.S. government's official web portal to all federal, state and local government web resources and services.